Anniston, AL

2:53 PM CDT on July 21, 2017 (GMT -0500)
Anniston Metro

Weather History for KANB - March, 2013

Change the Weather History Date:

Wednesday, March 6, 2013

  Actual Average Record
Temperature  
Mean Temperature 40 °F 52 °F  
Max Temperature 46 °F 64 °F 84 °F (1974)
Min Temperature 34 °F 41 °F 21 °F (1960)
Degree Days  
Heating Degree Days 25    
Month to date heating degree days 110  
Since 1 July heating degree days 2173  
Moisture  
Dew Point 24 °F    
Average Humidity 65    
Maximum Humidity 82    
Minimum Humidity 47    
Precipitation  
Precipitation 0.00 in 0.18 in 3.03 in (1996)
Month to date precipitation 0.23 1.05  
Year to date precipitation 14.18 10.65  
Sea Level Pressure  
Sea Level Pressure 30.20 in    
Wind  
Wind Speed 10 mph (NW)    
Max Wind Speed 22 mph    
Max Gust Speed 33 mph    
Visibility 10 miles    
Events      
T = Trace of Precipitation, MM = Missing Value Source: NWS Daily Summary

Daily Weather History Graph

Daily Weather History Graph

Search for Another Location

Airport or City:

Trip Planner

Search our weather history database for the weather conditions in past years. The results will help you decide how hot, cold, wet, or windy it might be!

Date:

Astronomy

Mar. 06, 2013 Rise Set
Actual Time 6:05 AM CST 5:44 PM CST
Civil Twilight 5:40 AM CST 6:09 PM CST
Nautical Twilight 5:11 AM CST 6:38 PM CST
Astronomical Twilight 4:42 AM CST 7:07 PM CST
Moon 2:01 AM CST (3/6) 12:37 PM CST (3/6)
Length of Visible Light 12h 28m
Length of Day
11h 39m
Waning Crescent, 29% of the Moon is Illuminated
Mar 6
Waning Crescent
Mar 11
New
Mar 19
First Quarter
Mar 27
Full
Apr 2
Last Quarter

Hourly Weather History & Observations

Time (CST) Temp. Windchill Dew Point Humidity Pressure Visibility Wind Dir Wind Speed Gust Speed Precip Events Conditions
12:53 AM 36.0 °F 29.0 °F 28.9 °F 76% 30.04 in 10.0 mi WSW 9.2 mph - N/A   Partly Cloudy
1:53 AM 37.9 °F 28.9 °F 21.0 °F 51% 30.06 in 10.0 mi WNW 16.1 mph 31.1 mph N/A   Mostly Cloudy
2:53 AM 36.0 °F 26.0 °F 18.0 °F 48% 30.07 in 10.0 mi West 17.3 mph 26.5 mph N/A   Clear
3:53 AM 34.0 °F 25.0 °F 19.0 °F 54% 30.09 in 10.0 mi WNW 12.7 mph 18.4 mph N/A   Clear
4:53 AM 34.0 °F 26.0 °F 19.0 °F 54% 30.11 in 10.0 mi West 10.4 mph 21.9 mph N/A   Clear
6:53 AM 35.1 °F 28.6 °F 19.9 °F 54% 30.16 in 10.0 mi WNW 8.1 mph 24.2 mph N/A   Overcast
7:53 AM 36.0 °F 27.5 °F 21.0 °F 55% 30.19 in 10.0 mi WNW 12.7 mph 20.7 mph N/A   Overcast
8:53 AM 37.0 °F 27.4 °F 21.0 °F 52% 30.22 in 10.0 mi NW 17.3 mph 27.6 mph N/A   Overcast
9:53 AM 37.0 °F 28.9 °F 21.9 °F 54% 30.23 in 10.0 mi West 12.7 mph 20.7 mph N/A   Overcast
10:53 AM 37.9 °F 29.2 °F 21.9 °F 53% 30.24 in 10.0 mi NW 15.0 mph 25.3 mph N/A   Overcast
11:53 AM 39.9 °F 32.1 °F 23.0 °F 51% 30.23 in 10.0 mi WNW 13.8 mph 20.7 mph N/A   Overcast
12:53 PM 39.9 °F 33.4 °F 23.0 °F 51% 30.23 in 10.0 mi West 10.4 mph 21.9 mph N/A   Overcast
1:53 PM 41.0 °F 35.2 °F 24.1 °F 51% 30.23 in 10.0 mi NW 9.2 mph 18.4 mph N/A   Overcast
2:53 PM 43.0 °F 38.8 °F 25.0 °F 49% 30.22 in 10.0 mi NW 6.9 mph - N/A   Overcast
3:53 PM 43.0 °F 38.8 °F 25.0 °F 49% 30.24 in 10.0 mi NW 6.9 mph 17.3 mph N/A   Mostly Cloudy
4:53 PM 43.0 °F 38.8 °F 27.0 °F 53% 30.25 in 10.0 mi WNW 6.9 mph 16.1 mph N/A   Overcast
5:53 PM 42.1 °F 38.4 °F 27.0 °F 55% 30.25 in 10.0 mi WNW 5.8 mph - N/A   Overcast
6:53 PM 42.1 °F 40.2 °F 27.0 °F 55% 30.26 in 10.0 mi Variable 3.5 mph - N/A   Overcast
7:53 PM 41.0 °F - 27.0 °F 57% 30.25 in 10.0 mi Calm Calm - N/A   Clear
8:53 PM 39.0 °F 36.8 °F 27.0 °F 62% 30.26 in 10.0 mi WNW 3.5 mph - N/A   Clear
9:53 PM 39.0 °F 32.8 °F 26.1 °F 60% 30.26 in 10.0 mi North 9.2 mph - N/A   Clear
10:53 PM 37.0 °F 31.0 °F 26.1 °F 65% 30.28 in 10.0 mi North 8.1 mph - N/A   Clear
11:53 PM 36.0 °F 29.0 °F 24.1 °F 62% 30.27 in 10.0 mi NNW 9.2 mph - N/A   Clear